contact:dominique.lefevre@mio.osupytheas.fr, maurice.libes@osupytheas.fr, didier.mallarino@osupytheas.fr
Project:EMSO http://www.emso-fr.org/EMSO-France
Depth: 2436.0 m
Title:EMSO Ligure Ouest : Data MII capteur AQUADOPP
Date,Latitude,Longitude,X_East,Y_North,Z_Up,Amplitude_X,Amplitude_Y,Amplitude_Z,Batterie,SoundSpeed,Heading,Pitch,Roll,Pressure,TIS,Speed,Direction
, degrees North, degrees East, m.s-1, m.s-1,m.s-1, 1, 1, 1, Volt, m.s-1, degree, degree, degree, dbar, degree_C, m.s-1, degree
2023-06-16T00:04:03,42.805,6.029,0.023,-0.023,-0.047,101.0,101.0,101.0,13.4,1505.2,332.5,-0.8,1.8,2471.437,13.28,0.032,135.0
2023-06-16T00:07:03,42.805,6.029,0.022,-0.007,-0.034,101.0,102.0,101.0,13.4,1505.2,328.2,-0.7,1.8,2471.425,13.28,0.023,107.6
2023-06-16T00:10:03,42.805,6.029,0.017,-0.027,-0.036,101.0,100.0,102.0,13.3,1505.2,331.1,-0.7,1.8,2471.42,13.29,0.031,147.8
2023-06-16T00:13:03,42.805,6.029,0.062,-0.034,-0.044,101.0,102.0,101.0,13.4,1505.2,346.5,-0.8,1.8,2471.398,13.29,0.07,118.7
2023-06-16T00:16:03,42.805,6.029,0.025,-0.009,-0.04,100.0,101.0,102.0,13.4,1505.2,321.3,-0.8,1.8,2471.412,13.29,0.026,109.8
2023-06-16T00:19:03,42.805,6.029,0.057,-0.014,-0.048,103.0,100.0,101.0,13.4,1505.2,325.7,-0.8,1.8,2471.388,13.29,0.058,103.8
2023-06-16T00:22:03,42.805,6.029,0.046,0.002,0.005,101.0,100.0,101.0,13.3,1505.2,333.4,-0.8,1.8,2471.384,13.29,0.046,87.5
2023-06-16T00:25:03,42.805,6.029,0.008,0.0,-0.031,100.0,100.0,101.0,13.3,1505.2,333.8,-0.8,1.8,2471.373,13.29,0.008,90.0
2023-06-16T00:28:03,42.805,6.029,0.025,-0.004,-0.043,100.0,101.0,102.0,13.4,1505.2,328.6,-0.8,1.9,2471.409,13.29,0.025,99.1
2023-06-16T00:31:03,42.805,6.029,0.028,-0.043,-0.058,101.0,101.0,101.0,13.3,1505.2,331.6,-0.8,1.8,2471.373,13.29,0.051,146.9
2023-06-16T00:34:03,42.805,6.029,0.016,0.017,-0.022,102.0,102.0,100.0,13.3,1505.2,332.1,-0.8,1.8,2471.376,13.29,0.023,43.3
2023-06-16T00:37:03,42.805,6.029,0.021,-0.001,-0.013,103.0,100.0,101.0,13.4,1505.2,330.3,-0.8,1.8,2471.346,13.29,0.021,92.7
2023-06-16T00:40:03,42.805,6.029,0.027,-0.011,-0.006,101.0,101.0,101.0,13.4,1505.2,338.4,-0.8,1.8,2471.345,13.29,0.029,112.2
2023-06-16T00:43:03,42.805,6.029,0.03,-0.011,-0.012,102.0,99.0,102.0,13.3,1505.2,326.8,-0.8,1.8,2471.358,13.29,0.031,110.1
2023-06-16T00:46:03,42.805,6.029,0.003,-0.022,-0.044,99.0,100.0,101.0,13.4,1505.2,351.4,-0.7,1.8,2471.382,13.29,0.022,172.2
2023-06-16T00:49:03,42.805,6.029,0.018,-0.012,-0.023,101.0,101.0,100.0,13.4,1505.2,326.0,-0.8,1.8,2471.346,13.29,0.021,123.7
2023-06-16T00:52:03,42.805,6.029,-0.002,-0.012,-0.032,101.0,101.0,100.0,13.3,1505.2,323.8,-0.8,1.8,2471.379,13.29,0.012,189.5
2023-06-16T00:55:03,42.805,6.029,0.034,-0.012,-0.032,100.0,101.0,100.0,13.4,1505.2,324.7,-0.7,1.8,2471.35,13.29,0.036,109.4
2023-06-16T00:58:03,42.805,6.029,0.032,-0.014,-0.021,101.0,101.0,101.0,13.4,1505.2,319.0,-0.8,1.8,2471.365,13.29,0.034,113.6
2023-06-16T01:04:03,42.805,6.029,0.04,0.022,0.018,101.0,103.0,102.0,13.4,1505.2,346.8,-0.8,1.8,2471.411,13.28,0.045,61.2
2023-06-16T01:07:03,42.805,6.029,0.024,0.013,-0.017,101.0,100.0,101.0,13.4,1505.2,320.6,-0.8,1.8,2471.418,13.28,0.027,61.6
2023-06-16T01:10:03,42.805,6.029,0.035,-0.017,-0.034,101.0,103.0,101.0,13.4,1505.2,328.0,-0.8,1.9,2471.409,13.29,0.038,115.9
2023-06-16T01:13:03,42.805,6.029,0.036,0.002,-0.018,100.0,101.0,101.0,13.3,1505.2,325.0,-0.8,1.9,2471.373,13.29,0.036,86.8
2023-06-16T01:16:03,42.805,6.029,0.034,-0.023,-0.017,102.0,101.0,101.0,13.4,1505.2,339.1,-0.8,1.8,2471.353,13.29,0.041,124.1
2023-06-16T01:19:03,42.805,6.029,0.046,-0.047,-0.025,102.0,101.0,101.0,13.3,1505.2,348.2,-0.8,1.8,2471.415,13.29,0.065,135.6
2023-06-16T01:22:03,42.805,6.029,0.063,-0.028,-0.035,101.0,102.0,101.0,13.4,1505.2,323.3,-0.8,1.8,2471.42,13.29,0.068,114.0
2023-06-16T01:25:03,42.805,6.029,0.026,-0.019,-0.047,102.0,101.0,101.0,13.3,1505.2,323.6,-0.8,1.8,2471.382,13.29,0.032,126.2
2023-06-16T01:28:03,42.805,6.029,0.041,-0.017,-0.031,101.0,101.0,101.0,13.3,1505.2,324.5,-0.8,1.8,2471.404,13.29,0.044,112.5
2023-06-16T01:31:03,42.805,6.029,0.033,-0.01,-0.006,101.0,101.0,101.0,13.3,1505.2,339.1,-0.7,1.8,2471.385,13.29,0.034,106.9
2023-06-16T01:34:03,42.805,6.029,0.019,0.0,-0.06,101.0,102.0,101.0,13.4,1505.2,326.6,-0.8,1.8,2471.389,13.29,0.019,90.0
2023-06-16T01:37:03,42.805,6.029,0.022,-0.006,-0.054,99.0,100.0,102.0,13.4,1505.2,337.3,-0.8,1.8,2471.355,13.29,0.022,105.3
2023-06-16T01:40:03,42.805,6.029,0.011,-0.002,-0.037,101.0,102.0,102.0,13.3,1505.2,326.7,-0.8,1.8,2471.359,13.29,0.011,100.3
2023-06-16T01:43:03,42.805,6.029,0.004,-0.027,-0.062,101.0,101.0,102.0,13.3,1505.2,335.5,-0.8,1.8,2471.389,13.29,0.027,171.6
2023-06-16T01:46:03,42.805,6.029,0.026,-0.026,-0.026,101.0,101.0,101.0,13.3,1505.2,331.3,-0.7,1.9,2471.365,13.29,0.036,135.0
2023-06-16T01:49:03,42.805,6.029,0.046,-0.032,-0.024,101.0,101.0,101.0,13.4,1505.2,341.1,-0.8,1.8,2471.366,13.29,0.056,124.8
2023-06-16T01:52:03,42.805,6.029,-0.003,0.01,-0.017,102.0,99.0,100.0,13.3,1505.2,336.4,-0.7,1.8,2471.363,13.29,0.01,343.3
2023-06-16T01:55:03,42.805,6.029,0.023,-0.019,-0.049,101.0,102.0,100.0,13.3,1505.2,338.9,-0.7,1.8,2471.37,13.29,0.029,129.6
2023-06-16T01:58:03,42.805,6.029,0.034,-0.009,-0.017,101.0,102.0,101.0,13.4,1505.2,346.8,-0.8,1.8,2471.4,13.29,0.035,104.8
2023-06-16T02:04:03,42.805,6.029,0.055,-0.036,-0.026,103.0,101.0,100.0,13.3,1505.2,347.9,-0.8,1.8,2471.41,13.28,0.065,123.2
2023-06-16T02:07:03,42.805,6.029,0.034,-0.008,-0.025,103.0,99.0,100.0,13.3,1505.2,328.6,-0.7,1.8,2471.402,13.28,0.034,103.2
2023-06-16T02:10:03,42.805,6.029,0.033,-0.036,-0.049,100.0,101.0,101.0,13.3,1505.2,338.9,-0.8,1.8,2471.401,13.29,0.048,137.5
2023-06-16T02:13:03,42.805,6.029,0.015,-0.009,-0.034,101.0,101.0,100.0,13.4,1505.2,331.9,-0.8,1.8,2471.439,13.29,0.017,121.0
2023-06-16T02:16:03,42.805,6.029,0.038,-0.018,0.004,100.0,100.0,101.0,13.4,1505.2,343.1,-0.8,1.8,2471.389,13.29,0.042,115.3
2023-06-16T02:19:03,42.805,6.029,0.026,-0.02,-0.051,103.0,98.0,103.0,13.3,1505.2,322.9,-0.8,1.8,2471.392,13.29,0.032,127.6
2023-06-16T02:22:03,42.805,6.029,0.023,-0.025,-0.04,102.0,101.0,100.0,13.4,1505.2,333.9,-0.7,1.8,2471.354,13.29,0.033,137.4
2023-06-16T02:25:03,42.805,6.029,0.019,-0.026,-0.067,101.0,101.0,101.0,13.4,1505.2,340.4,-0.8,1.8,2471.373,13.29,0.032,143.8
2023-06-16T02:28:03,42.805,6.029,0.021,-0.012,-0.039,101.0,101.0,101.0,13.4,1505.2,331.2,-0.8,1.8,2471.422,13.29,0.024,119.7
2023-06-16T02:31:03,42.805,6.029,0.039,-0.006,-0.032,102.0,100.0,101.0,13.4,1505.2,329.0,-0.8,1.8,2471.413,13.29,0.039,98.7
2023-06-16T02:34:03,42.805,6.029,0.037,-0.02,-0.036,100.0,101.0,101.0,13.3,1505.2,344.5,-0.8,1.8,2471.414,13.29,0.042,118.4
2023-06-16T02:37:03,42.805,6.029,0.045,-0.031,-0.03,102.0,100.0,100.0,13.4,1505.2,320.7,-0.8,1.8,2471.38,13.29,0.054,124.6
2023-06-16T02:40:03,42.805,6.029,0.037,-0.003,-0.011,99.0,101.0,102.0,13.3,1505.2,335.0,-0.8,1.9,2471.414,13.29,0.037,94.6
2023-06-16T02:43:03,42.805,6.029,0.05,-0.026,-0.042,102.0,100.0,101.0,13.3,1505.2,326.3,-0.7,1.8,2471.4,13.29,0.056,117.5
2023-06-16T02:46:03,42.805,6.029,0.033,-0.034,-0.054,101.0,100.0,101.0,13.4,1505.2,333.0,-0.8,1.8,2471.407,13.29,0.047,135.9
2023-06-16T02:49:03,42.805,6.029,0.024,0.006,-0.014,101.0,101.0,101.0,13.3,1505.2,341.9,-0.7,1.8,2471.425,13.29,0.024,76.0
2023-06-16T02:52:03,42.805,6.029,0.014,-0.027,-0.046,100.0,101.0,102.0,13.3,1505.2,350.9,-0.8,1.8,2471.391,13.29,0.03,152.6
2023-06-16T02:55:03,42.805,6.029,0.029,-0.003,-0.015,102.0,102.0,100.0,13.4,1505.2,339.7,-0.7,1.8,2471.396,13.29,0.029,95.9
2023-06-16T02:58:03,42.805,6.029,0.028,-0.032,-0.03,102.0,101.0,101.0,13.4,1505.2,339.7,-0.8,1.8,2471.392,13.29,0.042,138.8
2023-06-16T03:04:03,42.805,6.029,-0.003,0.013,-0.003,104.0,100.0,100.0,13.3,1505.2,327.3,-0.8,1.8,2471.452,13.28,0.013,347.0
2023-06-16T03:07:03,42.805,6.029,0.014,-0.007,-0.017,100.0,101.0,101.0,13.4,1505.2,348.2,-0.8,1.8,2471.465,13.28,0.015,116.6
2023-06-16T03:10:03,42.805,6.029,0.046,0.006,-0.006,102.0,101.0,101.0,13.4,1505.2,328.3,-0.8,1.8,2471.423,13.29,0.046,82.6
2023-06-16T03:13:03,42.805,6.029,-0.002,0.005,-0.028,101.0,102.0,100.0,13.4,1505.2,333.9,-0.7,1.8,2471.462,13.29,0.005,338.2
2023-06-16T03:16:03,42.805,6.029,0.043,-0.019,-0.024,102.0,100.0,101.0,13.4,1505.2,339.3,-0.8,1.8,2471.467,13.29,0.047,113.8
2023-06-16T03:19:03,42.805,6.029,0.042,-0.011,-0.007,101.0,101.0,101.0,13.4,1505.2,345.9,-0.8,1.8,2471.421,13.29,0.043,104.7
2023-06-16T03:22:03,42.805,6.029,0.032,0.0,-0.054,102.0,102.0,100.0,13.3,1505.2,319.8,-0.8,1.8,2471.457,13.29,0.032,90.0
2023-06-16T03:25:03,42.805,6.029,0.045,-0.031,-0.022,101.0,101.0,100.0,13.4,1505.2,338.4,-0.8,1.8,2471.453,13.29,0.054,124.6
2023-06-16T03:28:03,42.805,6.029,0.029,-0.023,-0.021,100.0,103.0,101.0,13.4,1505.2,336.0,-0.8,1.8,2471.441,13.29,0.037,128.4
2023-06-16T03:31:03,42.805,6.029,0.004,-0.003,-0.049,102.0,101.0,102.0,13.4,1505.2,318.3,-0.8,1.9,2471.431,13.29,0.005,126.9
2023-06-16T03:34:03,42.805,6.029,-0.008,0.022,-0.002,102.0,102.0,101.0,13.3,1505.2,326.5,-0.8,1.8,2471.441,13.29,0.023,340.0
2023-06-16T03:37:03,42.805,6.029,0.034,-0.032,-0.034,101.0,101.0,101.0,13.4,1505.2,341.5,-0.7,1.8,2471.474,13.29,0.046,133.3
2023-06-16T03:40:03,42.805,6.029,0.027,-0.002,-0.033,100.0,102.0,101.0,13.3,1505.2,338.6,-0.8,1.8,2471.456,13.29,0.027,94.2
2023-06-16T03:43:03,42.805,6.029,0.004,0.028,0.029,103.0,100.0,101.0,13.3,1505.2,337.4,-0.7,1.8,2471.444,13.29,0.028,8.1
2023-06-16T03:46:03,42.805,6.029,0.029,-0.024,-0.049,101.0,102.0,101.0,13.4,1505.2,332.9,-0.8,1.8,2471.441,13.29,0.037,129.6
2023-06-16T03:49:03,42.805,6.029,0.037,-0.002,-0.033,101.0,101.0,101.0,13.4,1505.2,330.3,-0.8,1.8,2471.483,13.29,0.037,93.1
2023-06-16T03:52:03,42.805,6.029,0.037,-0.007,0.003,102.0,103.0,101.0,13.4,1505.2,347.4,-0.8,1.8,2471.43,13.29,0.037,100.7
2023-06-16T03:55:03,42.805,6.029,0.035,-0.013,0.007,102.0,102.0,100.0,13.3,1505.2,341.5,-0.8,1.8,2471.454,13.29,0.037,110.4
2023-06-16T03:58:03,42.805,6.029,0.019,-0.036,-0.046,102.0,101.0,101.0,13.4,1505.2,343.5,-0.8,1.8,2471.463,13.29,0.04,152.2
2023-06-16T04:04:03,42.805,6.029,0.045,-0.011,-0.004,101.0,101.0,101.0,13.3,1505.2,330.8,-0.8,1.8,2471.479,13.28,0.046,103.7
2023-06-16T04:07:03,42.805,6.029,0.03,-0.035,-0.026,100.0,101.0,101.0,13.3,1505.2,333.4,-0.8,1.8,2471.512,13.28,0.046,139.4
2023-06-16T04:10:03,42.805,6.029,0.02,-0.005,-0.027,101.0,102.0,100.0,13.3,1505.2,341.9,-0.7,1.8,2471.494,13.29,0.02,104.0
2023-06-16T04:13:03,42.805,6.029,0.011,0.01,-0.012,102.0,101.0,102.0,13.3,1505.2,337.6,-0.8,1.8,2471.453,13.29,0.014,47.7
2023-06-16T04:16:03,42.805,6.029,0.002,-0.012,-0.055,101.0,102.0,101.0,13.4,1505.2,339.0,-0.8,1.8,2471.486,13.29,0.012,170.5
2023-06-16T04:19:03,42.805,6.029,0.028,-0.02,-0.016,102.0,102.0,101.0,13.4,1505.2,341.2,-0.7,1.8,2471.471,13.29,0.034,125.5
2023-06-16T04:22:03,42.805,6.029,0.02,-0.01,-0.036,101.0,101.0,101.0,13.3,1505.2,339.7,-0.8,1.8,2471.472,13.29,0.022,116.6
2023-06-16T04:25:03,42.805,6.029,0.016,-0.024,-0.071,101.0,101.0,101.0,13.4,1505.2,342.3,-0.7,1.8,2471.469,13.29,0.028,146.3
2023-06-16T04:28:03,42.805,6.029,0.015,-0.007,-0.037,102.0,102.0,100.0,13.3,1505.2,339.3,-0.8,1.8,2471.443,13.29,0.016,115.0
2023-06-16T04:31:03,42.805,6.029,-0.002,-0.012,-0.041,102.0,102.0,101.0,13.4,1505.2,323.4,-0.8,1.9,2471.49,13.29,0.012,189.5
2023-06-16T04:34:03,42.805,6.029,0.03,-0.008,-0.009,101.0,100.0,101.0,13.4,1505.2,337.3,-0.7,1.8,2471.502,13.29,0.031,104.9
2023-06-16T04:37:03,42.805,6.029,0.026,0.007,-0.001,101.0,101.0,100.0,13.4,1505.2,332.4,-0.8,1.8,2471.472,13.29,0.026,74.9
2023-06-16T04:40:03,42.805,6.029,0.044,-0.012,-0.048,101.0,102.0,100.0,13.3,1505.2,322.5,-0.8,1.8,2471.489,13.29,0.045,105.3
2023-06-16T04:43:03,42.805,6.029,0.021,-0.011,-0.04,101.0,102.0,101.0,13.4,1505.2,332.5,-0.7,1.8,2471.462,13.29,0.023,117.6
2023-06-16T04:46:03,42.805,6.029,0.029,-0.011,-0.025,101.0,102.0,101.0,13.3,1505.2,329.9,-0.8,1.8,2471.458,13.29,0.031,110.8
2023-06-16T04:49:03,42.805,6.029,0.017,-0.02,-0.034,101.0,101.0,101.0,13.3,1505.2,338.2,-0.8,1.8,2471.487,13.29,0.026,139.6
2023-06-16T04:52:03,42.805,6.029,0.025,-0.029,-0.014,101.0,101.0,101.0,13.4,1505.2,342.5,-0.8,1.8,2471.513,13.29,0.038,139.2
2023-06-16T04:55:03,42.805,6.029,0.02,-0.006,-0.005,101.0,101.0,100.0,13.3,1505.2,330.9,-0.7,1.8,2471.529,13.29,0.02,106.7
2023-06-16T04:58:03,42.805,6.029,0.021,-0.006,-0.022,101.0,101.0,102.0,13.4,1505.2,341.9,-0.8,1.8,2471.493,13.29,0.021,105.9
2023-06-16T05:04:03,42.805,6.029,0.025,-0.055,-0.048,101.0,100.0,101.0,13.4,1505.2,346.7,-0.8,1.8,2471.559,13.28,0.06,155.6
2023-06-16T05:07:03,42.805,6.029,0.031,-0.001,-0.029,100.0,100.0,101.0,13.4,1505.2,329.0,-0.8,1.8,2471.568,13.28,0.031,91.8
2023-06-16T05:10:03,42.805,6.029,0.015,-0.011,-0.058,102.0,101.0,101.0,13.4,1505.2,332.5,-0.8,1.8,2471.547,13.29,0.018,126.3
2023-06-16T05:13:03,42.805,6.029,0.05,-0.018,-0.002,102.0,102.0,100.0,13.4,1505.2,332.4,-0.7,1.8,2471.536,13.29,0.053,109.8
2023-06-16T05:16:03,42.805,6.029,0.009,0.004,-0.01,102.0,100.0,100.0,13.4,1505.2,349.5,-0.8,1.8,2471.504,13.29,0.009,66.0
2023-06-16T05:19:03,42.805,6.029,0.04,-0.036,-0.05,101.0,100.0,101.0,13.4,1505.2,320.1,-0.8,1.8,2471.507,13.29,0.053,132.0
2023-06-16T05:22:03,42.805,6.029,0.017,-0.021,-0.041,100.0,102.0,100.0,13.4,1505.2,339.3,-0.8,1.8,2471.513,13.29,0.027,141.0
2023-06-16T05:25:03,42.805,6.029,0.039,-0.024,-0.052,100.0,101.0,100.0,13.3,1505.2,327.9,-0.8,1.8,2471.507,13.29,0.045,121.6
2023-06-16T05:28:03,42.805,6.029,0.025,-0.001,-0.032,102.0,102.0,100.0,13.3,1505.2,342.5,-0.7,1.8,2471.474,13.29,0.025,92.3
2023-06-16T05:31:03,42.805,6.029,0.03,-0.003,-0.016,100.0,101.0,101.0,13.4,1505.2,335.8,-0.8,1.8,2471.481,13.29,0.03,95.7
2023-06-16T05:34:03,42.805,6.029,0.024,-0.017,-0.016,102.0,100.0,100.0,13.4,1505.2,329.0,-0.8,1.8,2471.515,13.29,0.029,125.3
2023-06-16T05:37:03,42.805,6.029,0.03,-0.021,-0.025,101.0,103.0,100.0,13.4,1505.2,328.8,-0.8,1.8,2471.503,13.29,0.036,125.0
2023-06-16T05:40:03,42.805,6.029,0.017,-0.027,-0.052,103.0,100.0,101.0,13.4,1505.2,345.7,-0.8,1.8,2471.489,13.29,0.031,147.8
2023-06-16T05:43:03,42.805,6.029,0.062,-0.031,-0.041,100.0,101.0,100.0,13.4,1505.2,318.3,-0.8,1.8,2471.478,13.29,0.069,116.6
2023-06-16T05:46:03,42.805,6.029,0.022,-0.025,-0.035,101.0,99.0,101.0,13.3,1505.2,336.5,-0.8,1.8,2471.5,13.29,0.033,138.7
2023-06-16T05:49:03,42.805,6.029,0.026,-0.022,-0.041,101.0,102.0,100.0,13.4,1505.2,339.7,-0.8,1.8,2471.494,13.29,0.034,130.2
2023-06-16T05:52:03,42.805,6.029,0.016,-0.028,-0.037,101.0,100.0,101.0,13.4,1505.2,348.9,-0.7,1.8,2471.477,13.29,0.032,150.3
2023-06-16T05:55:03,42.805,6.029,0.017,-0.016,-0.061,102.0,100.0,102.0,13.4,1505.2,323.8,-0.8,1.8,2471.494,13.29,0.023,133.3
2023-06-16T05:58:03,42.805,6.029,0.019,-0.002,-0.007,100.0,100.0,101.0,13.4,1505.2,324.3,-0.8,1.8,2471.537,13.29,0.019,96.0
2023-06-16T06:04:03,42.805,6.029,0.007,0.0,-0.019,101.0,100.0,101.0,13.3,1505.2,345.7,-0.8,1.8,2471.544,13.28,0.007,90.0
2023-06-16T06:07:03,42.805,6.029,0.012,-0.007,-0.024,101.0,99.0,102.0,13.3,1505.2,326.8,-0.7,1.8,2471.52,13.28,0.013,120.3
2023-06-16T06:10:03,42.805,6.029,0.037,-0.024,-0.043,99.0,103.0,100.0,13.4,1505.2,326.0,-0.8,1.8,2471.534,13.28,0.044,123.0
2023-06-16T06:13:03,42.805,6.029,0.019,-0.009,-0.017,101.0,101.0,101.0,13.4,1505.2,332.9,-0.7,1.8,2471.516,13.29,0.021,115.3
2023-06-16T06:16:03,42.805,6.029,0.023,-0.027,-0.055,104.0,103.0,101.0,13.4,1505.2,335.1,-0.8,1.8,2471.522,13.29,0.035,139.6
2023-06-16T06:19:03,42.805,6.029,0.017,-0.026,-0.059,101.0,102.0,101.0,13.4,1505.2,342.3,-0.7,1.8,2471.495,13.29,0.031,146.8
2023-06-16T06:22:03,42.805,6.029,0.031,-0.012,-0.026,100.0,103.0,101.0,13.4,1505.2,344.7,-0.7,1.8,2471.503,13.29,0.033,111.2
2023-06-16T06:25:03,42.805,6.029,0.022,0.001,-0.012,102.0,101.0,101.0,13.4,1505.2,322.7,-0.8,1.8,2471.505,13.29,0.022,87.4
2023-06-16T06:28:03,42.805,6.029,0.0,-0.011,-0.039,102.0,100.0,101.0,13.4,1505.2,342.6,-0.8,1.8,2471.463,13.29,0.011,180.0
2023-06-16T06:31:03,42.805,6.029,0.015,-0.033,-0.065,101.0,100.0,101.0,13.4,1505.2,334.2,-0.8,1.8,2471.515,13.29,0.036,155.6
2023-06-16T06:34:03,42.805,6.029,0.01,-0.034,-0.044,101.0,101.0,100.0,13.4,1505.2,326.5,-0.7,1.8,2471.478,13.29,0.035,163.6
2023-06-16T06:37:03,42.805,6.029,0.0,-0.034,-0.051,101.0,101.0,101.0,13.4,1505.2,341.2,-0.8,1.8,2471.512,13.29,0.034,180.0
2023-06-16T06:40:03,42.805,6.029,0.026,-0.024,-0.026,101.0,101.0,101.0,13.3,1505.2,339.7,-0.8,1.8,2471.447,13.29,0.035,132.7
2023-06-16T06:43:03,42.805,6.029,0.032,-0.014,-0.025,101.0,101.0,101.0,13.4,1505.2,333.4,-0.8,1.8,2471.459,13.29,0.034,113.6
2023-06-16T06:46:03,42.805,6.029,0.008,-0.025,-0.059,100.0,101.0,101.0,13.4,1505.2,345.0,-0.8,1.8,2471.467,13.29,0.026,162.3
2023-06-16T06:49:03,42.805,6.029,0.006,-0.006,-0.041,101.0,100.0,101.0,13.4,1505.2,321.4,-0.7,1.8,2471.496,13.29,0.008,135.0
2023-06-16T06:52:03,42.805,6.029,0.043,-0.021,-0.028,101.0,101.0,101.0,13.4,1505.2,327.9,-0.8,1.8,2471.435,13.29,0.047,116.0
2023-06-16T06:55:03,42.805,6.029,0.023,-0.014,-0.007,100.0,101.0,101.0,13.4,1505.2,344.7,-0.8,1.8,2471.465,13.29,0.026,121.3
2023-06-16T06:58:03,42.805,6.029,0.022,-0.026,-0.1,101.0,101.0,101.0,13.4,1505.2,319.6,-0.7,1.8,2471.49,13.29,0.034,139.8
2023-06-16T07:04:03,42.805,6.029,0.013,-0.014,-0.037,101.0,101.0,101.0,13.4,1505.2,350.7,-0.7,1.8,2471.521,13.28,0.019,137.1
2023-06-16T07:07:03,42.805,6.029,0.01,-0.016,-0.022,102.0,101.0,100.0,13.4,1505.2,337.8,-0.7,1.8,2471.53,13.28,0.018,148.0
2023-06-16T07:10:03,42.805,6.029,0.025,-0.012,-0.011,102.0,101.0,100.0,13.3,1505.2,336.6,-0.8,1.8,2471.511,13.29,0.027,115.6
2023-06-16T07:13:03,42.805,6.029,0.036,-0.01,-0.015,103.0,101.0,100.0,13.4,1505.2,327.9,-0.7,1.8,2471.52,13.29,0.037,105.5
2023-06-16T07:16:03,42.805,6.029,0.03,-0.01,0.005,102.0,101.0,101.0,13.3,1505.2,347.9,-0.8,1.9,2471.501,13.29,0.031,108.4
2023-06-16T07:19:03,42.805,6.029,0.042,-0.013,-0.014,104.0,101.0,101.0,13.4,1505.2,341.8,-0.8,1.9,2471.448,13.29,0.043,107.2
2023-06-16T07:22:03,42.805,6.029,0.018,-0.013,-0.028,100.0,101.0,101.0,13.3,1505.2,333.4,-0.7,1.8,2471.457,13.29,0.022,125.8
2023-06-16T07:25:03,42.805,6.029,0.012,-0.015,-0.024,101.0,101.0,101.0,13.4,1505.2,329.2,-0.8,1.8,2471.473,13.29,0.019,141.3
2023-06-16T07:28:03,42.805,6.029,0.011,-0.017,-0.051,103.0,102.0,101.0,13.4,1505.2,329.0,-0.8,1.8,2471.446,13.29,0.02,147.1
2023-06-16T07:31:03,42.805,6.029,0.028,-0.027,-0.021,101.0,102.0,100.0,13.4,1505.2,346.5,-0.7,1.8,2471.439,13.29,0.038,134.0
2023-06-16T07:34:03,42.805,6.029,-0.005,0.0,-0.026,100.0,101.0,101.0,13.3,1505.2,349.1,-0.8,1.8,2471.425,13.29,0.005,270.0
2023-06-16T07:37:03,42.805,6.029,0.006,-0.008,-0.02,101.0,100.0,102.0,13.4,1505.2,324.8,-0.8,1.9,2471.435,13.29,0.01,143.1
2023-06-16T07:40:03,42.805,6.029,0.012,-0.012,-0.021,102.0,101.0,101.0,13.3,1505.2,340.2,-0.8,1.8,2471.456,13.29,0.016,135.0
2023-06-16T07:43:03,42.805,6.029,0.011,-0.007,-0.02,100.0,101.0,101.0,13.3,1505.2,340.0,-0.8,1.8,2471.464,13.29,0.013,122.5
2023-06-16T07:46:03,42.805,6.029,-0.002,-0.011,-0.036,101.0,100.0,101.0,13.4,1505.2,335.2,-0.8,1.8,2471.432,13.29,0.011,190.3
2023-06-16T07:49:03,42.805,6.029,0.02,-0.031,-0.04,101.0,101.0,101.0,13.4,1505.2,341.1,-0.8,1.8,2471.448,13.29,0.036,147.2
2023-06-16T07:52:03,42.805,6.029,-0.001,-0.014,-0.029,100.0,102.0,102.0,13.3,1505.2,341.1,-0.8,1.8,2471.439,13.29,0.014,184.1
2023-06-16T07:55:03,42.805,6.029,0.001,-0.018,-0.038,102.0,100.0,101.0,13.3,1505.2,322.7,-0.8,1.8,2471.429,13.29,0.018,176.8
2023-06-16T07:58:03,42.805,6.029,0.009,-0.049,-0.042,101.0,101.0,101.0,13.4,1505.2,341.9,-0.8,1.8,2471.443,13.29,0.049,169.6
2023-06-16T08:04:03,42.805,6.029,0.004,-0.002,-0.029,102.0,102.0,100.0,13.4,1505.2,328.4,-0.8,1.8,2471.479,13.28,0.004,116.6
2023-06-16T08:07:03,42.805,6.029,0.015,0.0,-0.002,101.0,100.0,101.0,13.3,1505.2,336.9,-0.7,1.8,2471.455,13.28,0.015,90.0
2023-06-16T08:10:03,42.805,6.029,0.022,-0.026,-0.045,101.0,101.0,101.0,13.4,1505.2,347.7,-0.8,1.8,2471.498,13.29,0.034,139.8
2023-06-16T08:13:03,42.805,6.029,0.027,-0.02,-0.018,101.0,101.0,100.0,13.4,1505.2,346.2,-0.8,1.8,2471.477,13.29,0.033,126.5
2023-06-16T08:16:03,42.805,6.029,0.013,-0.016,-0.05,101.0,101.0,103.0,13.4,1505.2,325.3,-0.7,1.8,2471.487,13.29,0.02,140.9
2023-06-16T08:19:03,42.805,6.029,0.038,-0.048,-0.038,103.0,101.0,101.0,13.3,1505.2,340.4,-0.7,1.9,2471.441,13.29,0.061,141.6
2023-06-16T08:22:03,42.805,6.029,0.006,-0.031,-0.018,101.0,101.0,101.0,13.4,1505.2,346.5,-0.8,1.8,2471.433,13.29,0.031,169.0
2023-06-16T08:25:03,42.805,6.029,0.014,-0.032,-0.045,102.0,100.0,101.0,13.3,1505.2,332.1,-0.7,1.8,2471.438,13.29,0.034,156.4
2023-06-16T08:28:03,42.805,6.029,0.009,-0.009,-0.038,102.0,100.0,101.0,13.3,1505.2,341.2,-0.8,1.8,2471.422,13.29,0.012,135.0
2023-06-16T08:31:03,42.805,6.029,-0.003,-0.033,-0.053,101.0,101.0,100.0,13.3,1505.2,328.8,-0.8,1.8,2471.4,13.29,0.033,185.2
2023-06-16T08:34:03,42.805,6.029,-0.01,-0.025,-0.079,103.0,100.0,100.0,13.4,1505.2,337.7,-0.8,1.8,2471.406,13.29,0.026,201.8
2023-06-16T08:37:03,42.805,6.029,-0.003,-0.018,-0.046,101.0,101.0,100.0,13.4,1505.2,349.1,-0.8,1.8,2471.403,13.29,0.018,189.5
2023-06-16T08:40:03,42.805,6.029,0.011,-0.01,-0.03,101.0,102.0,101.0,13.3,1505.2,322.6,-0.8,1.8,2471.382,13.29,0.014,132.3
2023-06-16T08:43:03,42.805,6.029,0.02,-0.038,-0.04,102.0,101.0,101.0,13.4,1505.2,329.3,-0.8,1.8,2471.374,13.29,0.042,152.2
2023-06-16T08:46:03,42.805,6.029,0.006,-0.011,-0.003,102.0,102.0,101.0,13.4,1505.2,349.1,-0.7,1.8,2471.399,13.29,0.012,151.4
2023-06-16T08:49:03,42.805,6.029,0.02,-0.004,-0.025,100.0,101.0,100.0,13.4,1505.2,321.4,-0.8,1.8,2471.405,13.29,0.02,101.3
2023-06-16T08:52:03,42.805,6.029,0.027,-0.033,-0.021,103.0,99.0,101.0,13.3,1505.2,323.1,-0.8,1.8,2471.335,13.29,0.042,140.7
2023-06-16T08:55:03,42.805,6.029,0.026,-0.016,-0.04,101.0,102.0,101.0,13.4,1505.2,327.8,-0.8,1.8,2471.39,13.29,0.03,121.6
2023-06-16T08:58:03,42.805,6.029,-0.012,-0.007,-0.032,102.0,101.0,100.0,13.4,1505.2,324.0,-0.8,1.8,2471.401,13.29,0.013,239.7
2023-06-16T09:04:03,42.805,6.029,-0.005,-0.02,-0.034,105.0,102.0,102.0,13.4,1505.2,347.9,-0.8,1.8,2471.448,13.28,0.02,194.0
2023-06-16T09:07:03,42.805,6.029,0.003,-0.006,-0.023,100.0,100.0,102.0,13.3,1505.2,333.0,-0.7,1.8,2471.433,13.28,0.006,153.4
2023-06-16T09:10:03,42.805,6.029,0.0,-0.023,-0.032,101.0,102.0,101.0,13.4,1505.2,334.4,-0.8,1.8,2471.423,13.29,0.023,180.0
2023-06-16T09:13:03,42.805,6.029,0.006,-0.019,-0.04,102.0,101.0,101.0,13.3,1505.2,334.8,-0.8,1.8,2471.411,13.29,0.019,162.5
2023-06-16T09:16:03,42.805,6.029,-0.013,-0.013,-0.007,102.0,102.0,100.0,13.3,1505.2,345.7,-0.7,1.8,2471.461,13.29,0.018,225.0
2023-06-16T09:19:03,42.805,6.029,0.009,-0.02,-0.027,101.0,101.0,101.0,13.4,1505.2,323.4,-0.8,1.8,2471.384,13.29,0.021,155.8
2023-06-16T09:22:03,42.805,6.029,0.019,-0.012,-0.051,100.0,102.0,102.0,13.4,1505.2,337.2,-0.8,1.8,2471.394,13.29,0.022,122.3
2023-06-16T09:25:03,42.805,6.029,0.015,-0.013,-0.018,103.0,99.0,102.0,13.4,1505.2,336.1,-0.8,1.8,2471.384,13.29,0.019,130.9
2023-06-16T09:28:03,42.805,6.029,0.019,-0.045,-0.044,102.0,101.0,100.0,13.3,1505.2,320.9,-0.8,1.8,2471.358,13.29,0.048,157.1
2023-06-16T09:31:03,42.805,6.029,0.003,0.011,-0.036,101.0,101.0,101.0,13.4,1505.2,338.2,-0.8,1.8,2471.387,13.29,0.011,15.3
2023-06-16T09:34:03,42.805,6.029,0.003,-0.025,-0.052,100.0,101.0,102.0,13.4,1505.2,338.4,-0.8,1.8,2471.385,13.29,0.025,173.2
2023-06-16T09:37:03,42.805,6.029,0.017,-0.014,-0.029,103.0,101.0,100.0,13.4,1505.2,322.2,-0.8,1.8,2471.353,13.29,0.022,129.5
2023-06-16T09:40:03,42.805,6.029,-0.016,-0.016,-0.051,101.0,100.0,102.0,13.4,1505.2,322.2,-0.8,1.8,2471.36,13.29,0.022,225.0
2023-06-16T09:43:03,42.805,6.029,0.001,-0.039,-0.056,103.0,101.0,100.0,13.4,1505.2,338.4,-0.8,1.8,2471.377,13.29,0.039,178.5
2023-06-16T09:46:03,42.805,6.029,0.012,-0.012,-0.032,103.0,102.0,100.0,13.4,1505.2,325.7,-0.8,1.8,2471.383,13.29,0.016,135.0
2023-06-16T09:49:03,42.805,6.029,0.028,-0.026,-0.04,100.0,102.0,101.0,13.4,1505.2,328.3,-0.7,1.8,2471.374,13.29,0.038,132.9
2023-06-16T09:52:03,42.805,6.029,-0.005,-0.027,-0.054,101.0,101.0,101.0,13.4,1505.2,339.3,-0.7,1.9,2471.352,13.29,0.027,190.5
2023-06-16T09:55:03,42.805,6.029,0.0,-0.026,-0.045,100.0,101.0,102.0,13.4,1505.2,348.9,-0.8,1.8,2471.351,13.29,0.026,180.0